Starlink 36284

operational
NORAD ID: 67194 Int'l Des: 2025-304 Owner: SPXS Country: US Constellation: starlink
LEOCIRCULAR

Über Starlink 36284

Beschreibung wird geladen...

Live-Position

3D-Globus wird geladen...

Nächste Überflüge

Höhenverlauf

Altitude vs Time

uPlot chart will show altitude changes over time

Zweizeiliger Elementsatz

1 67194C 25304C 25352.76715278 .00710980 00000+0 98134-3 0 3526
2 67194 69.9984 31.2734 0009044 256.1489 231.5812 16.05030752 18
Epoch: 18. Dez. 2025 • Age: 61 hours

Aktueller Status

Höhe 270.7 km
Geschwindigkeit 7.75 km/s
Subsatellitenpunkt -58.08°S, 66.78°E
Startdatum 17. Dez. 2025
Alter 2 days
Typ internet

Technische Details

Klassifizierung Payload
Masse 575.00 kg
Trockenmasse 530.00 kg
Gesamtmasse 575.00 kg
Länge 0.30 m
Durchmesser 4.10 m
Spannweite 29.00 m
Form Box + pan
Hersteller SPXS
Bus-Typ Starlink V2MO
Phasenstatus In Orbit
Besitzer/Staat SPXS/US

Große Konstellationen

Loading constellations...